EW0322 Weather Reports


Display with metric or nautical units.
time (UTC)temp
F
wind
direction
speed
MPH
gust
MPH
rain 1hr
in
rain 24hr
in
rain mn
in
humidity
%
barometer
mb
20260504050010 71 221 0.0 0.0 0.00 0.00 0.00 38 1006.8
20260504044514 72 221 0.0 0.0 0.00 0.00 0.00 37 1006.8
20260504043014 73 221 0.0 0.0 0.00 0.00 0.00 36 1006.6
20260504041533 74 221 0.0 0.0 0.00 0.00 0.00 34 1006.8
20260504040017 74 221 0.0 1.0 0.00 0.00 0.00 33 1006.8
20260504034510 75 221 0.0 0.0 0.00 0.00 0.00 31 1006.9
20260504033008 75 221 0.0 0.0 0.00 0.00 0.00 29 1006.9
20260504031508 75 221 0.0 0.0 0.00 0.00 0.00 28 1006.9
20260504030007 76 221 0.0 0.0 0.00 0.00 0.00 27 1007.0
20260504024506 76 221 0.0 0.0 0.00 0.00 0.00 27 1007.0
20260504023006 77 221 0.0 1.0 0.00 0.00 0.00 26 1006.8
20260504021506 77 221 0.0 2.0 0.00 0.00 0.00 25 1006.6
20260504020009 78 221 0.0 3.0 0.00 0.00 0.00 25 1006.6
20260504014504 78 220 0.0 3.0 0.00 0.00 0.00 24 1006.3
20260504013004 78 219 0.0 4.0 0.00 0.00 0.00 23 1006.4
20260504011504 79 217 1.0 5.0 0.00 0.00 0.00 23 1006.4
20260504010002 79 207 1.0 4.0 0.00 0.00 0.00 23 1006.4
20260504004600 79 217 1.0 4.0 0.00 0.00 0.00 26 1006.5
20260504003059 79 220 0.0 2.0 0.00 0.00 0.00 28 1006.7
20260504001559 79 220 0.0 1.0 0.00 0.00 0.00 29 1006.7
20260504000056 79 221 0.0 2.0 0.00 0.00 0.00 29 1007.1
20260503234554 79 221 0.0 1.0 0.00 0.00 0.00 29 1007.2
20260503233052 79 221 0.0 3.0 0.00 0.00 0.00 29 1007.3
20260503231551 79 221 1.0 11.0 0.00 0.00 0.00 29 1007.6
20260503230049 79 245 0.0 4.0 0.00 0.00 0.00 29 1007.6
20260503224557 79 245 1.0 7.0 0.00 0.00 0.00 30 1007.9
20260503223046 78 245 2.0 10.0 0.00 0.00 0.00 30 1008.1
20260503221557 79 245 2.0 7.0 0.00 0.00 0.00 29 1008.4
20260503220043 80 255 0.0 8.0 0.00 0.00 0.00 28 1008.5
20260503214542 81 255 0.0 8.0 0.00 0.00 0.00 28 1009.0
20260503213042 81 255 0.0 7.0 0.00 0.00 0.00 28 1009.5
20260503211532 79 261 0.0 8.0 0.00 0.00 0.00 30 1010.0
20260503210028 78 261 0.0 6.0 0.00 0.00 0.00 30 1010.4
20260503204525 77 268 1.0 6.0 0.00 0.00 0.00 30 1010.7
20260503203029 76 271 1.0 4.0 0.00 0.00 0.00 31 1011.0
20260503201517 77 277 1.0 4.0 0.00 0.00 0.00 30 1011.4
20260503200013 76 277 0.0 4.0 0.00 0.00 0.00 31 1011.8
20260503194510 75 279 0.0 4.0 0.00 0.00 0.00 31 1012.0
20260503193011 75 281 0.0 3.0 0.00 0.00 0.00 32 1012.3
20260503191509 74 288 0.0 4.0 0.00 0.00 0.00 32 1012.5
20260503190001 74 281 0.0 3.0 0.00 0.00 0.00 32 1012.6
20260503184607 73 281 0.0 4.0 0.00 0.00 0.00 34 1012.9
20260503183055 73 291 0.0 3.0 0.00 0.00 0.00 35 1013.4
20260503181554 72 304 2.0 6.0 0.00 0.00 0.00 35 1013.5
20260503180057 71 345 1.0 5.0 0.00 0.00 0.00 36 1013.9
20260503174552 69 344 2.0 10.0 0.00 0.00 0.00 37 1014.3
20260503173043 70 346 2.0 6.0 0.00 0.00 0.00 37 1014.4
20260503171540 69 346 1.0 4.0 0.00 0.00 0.00 38 1014.5
20260503081532 58 42 2.0 6.0 0.00 0.00 0.00 52 1015.3
20260503071518 59 42 2.0 5.0 0.00 0.00 0.00 52 1016.0